Weather History for Punta Gorda, FL

Change the Weather History Date:

Thursday, March 21, 2013

  Actual Average Record
Temperature  
Mean Temperature 64 °F -  
Max Temperature 73 °F 78 °F 91 °F (2012)
Min Temperature 52 °F 56 °F 52 °F (2008)
Degree Days  
Heating Degree Days 2    
Growing Degree Days 14 (Base 50)    
Moisture  
Dew Point 46 °F    
Average Humidity 61    
Maximum Humidity 100    
Minimum Humidity 20    
Precipitation  
Precipitation 0.00 in - - ()
Sea Level Pressure  
Sea Level Pressure 29.95 in    
Wind  
Wind Speed 8 mph (North)    
Max Wind Speed 15 mph    
Max Gust Speed 20 mph    
Visibility 10 miles    
Events      
Averages and records for this station are not official NWS values.
T = Trace of Precipitation, MM = Missing Value Source: NWS Daily Summary

Daily Weather History Graph

Daily Weather History Graph

Search for Another Location

Airport:

Trip Planner

Search our weather history database for the weather conditions in past years. The results will help you decide how hot, cold, wet, or windy it might be!

Date:

Astronomy

Mar. 21, 2013 Rise Set
Actual Time 7:30 AM EDT 7:39 PM EDT
Civil Twilight 7:07 AM EDT 8:03 PM EDT
Nautical Twilight 6:40 AM EDT 8:30 PM EDT
Astronomical Twilight 6:13 AM EDT 8:57 PM EDT
Moon 2:34 PM EDT (3/21) 3:24 AM EDT (3/21)
Length of Visible Light 12h 55m
Length of Day
12h 09m
Waxing Gibbous, 68% of the Moon is Illuminated
Mar 21
Waxing Gibbous
Mar 27
Full
Apr 3
Last Quarter
Apr 10
New
Apr 18
First Quarter

Hourly Weather History & Observations

Time (EDT) Temp. Dew Point Humidity Pressure Visibility Wind Dir Wind Speed Gust Speed Precip Events Conditions
12:53 AM 63.0 °F 62.1 °F 97% 29.91 in 10.0 mi West 4.6 mph - N/A   Mostly Cloudy
2:24 AM 62.6 °F 60.8 °F 94% 29.90 in 10.0 mi WNW 4.6 mph - N/A   Mostly Cloudy
2:53 AM 63.0 °F 59.0 °F 87% 29.91 in 10.0 mi NW 12.7 mph - N/A   Overcast
3:53 AM 62.1 °F 59.0 °F 90% 29.91 in 10.0 mi North 11.5 mph - N/A   Mostly Cloudy
4:53 AM 59.0 °F 57.0 °F 93% 29.91 in 10.0 mi North 10.4 mph - N/A   Partly Cloudy
5:19 AM 59.0 °F 57.2 °F 94% 29.92 in 8.0 mi North 11.5 mph - N/A   Mostly Cloudy
5:53 AM 59.0 °F 57.0 °F 93% 29.93 in 8.0 mi North 11.5 mph - N/A   Mostly Cloudy
6:14 AM 57.2 °F 57.2 °F 100% 29.93 in 8.0 mi North 9.2 mph - N/A   Scattered Clouds
6:53 AM 57.9 °F 55.9 °F 93% 29.94 in 7.0 mi North 8.1 mph - N/A   Clear
7:53 AM 57.0 °F 54.0 °F 89% 29.96 in 10.0 mi North 9.2 mph - N/A   Clear
8:53 AM 57.9 °F 48.9 °F 72% 29.99 in 10.0 mi NNE 13.8 mph 19.6 mph N/A   Clear
9:53 AM 61.0 °F 43.0 °F 52% 29.99 in 10.0 mi NNE 13.8 mph - N/A   Clear
10:53 AM 63.0 °F 37.9 °F 40% 30.00 in 10.0 mi NNE 15.0 mph - N/A   Clear
11:53 AM 66.0 °F 37.9 °F 36% 30.01 in 10.0 mi NNE 9.2 mph - N/A   Clear
12:53 PM 69.1 °F 37.0 °F 31% 30.00 in 10.0 mi NNE 9.2 mph - N/A   Clear
1:53 PM 71.1 °F 34.0 °F 26% 29.97 in 10.0 mi North 8.1 mph 17.3 mph N/A   Clear
2:53 PM 72.0 °F 34.0 °F 25% 29.95 in 10.0 mi NNE 10.4 mph - N/A   Clear
3:53 PM 73.0 °F 33.1 °F 23% 29.94 in 10.0 mi Variable 5.8 mph - N/A   Clear
4:53 PM 73.9 °F 32.0 °F 21% 29.92 in 10.0 mi Variable 4.6 mph - N/A   Clear
5:53 PM 73.0 °F 28.9 °F 20% 29.92 in 10.0 mi Variable 4.6 mph - N/A   Clear
6:53 PM 73.0 °F 33.1 °F 23% 29.94 in 10.0 mi North 3.5 mph - N/A   Clear
7:53 PM 63.0 °F 45.0 °F 52% 29.94 in 10.0 mi NW 6.9 mph - N/A   Clear
8:53 PM 59.0 °F 46.0 °F 62% 29.96 in 10.0 mi NW 5.8 mph - N/A   Clear
9:53 PM 57.0 °F 41.0 °F 55% 29.98 in 10.0 mi NNW 8.1 mph - N/A   Clear
10:53 PM 54.0 °F 39.9 °F 59% 29.99 in 10.0 mi NNW 4.6 mph - N/A   Clear
11:53 PM 52.0 °F 37.9 °F 59% 29.98 in 10.0 mi Calm Calm - N/A   Clear